Location: L�Adrech
(44.2500°N, 6.4167°E)
Time: 23:14:47
(UTC+00:00)

CZ-2D R/B - Pass Details

Date: 07 June 2020
Orbit: 554 x 638 km, 97.9° (Epoch: 11 July)

Event Time Altitude Azimuth Distance (km) Brightness Sun altitude
Rises 02:58:52 0° 9° (N) 2,858 7.9 -8.1°
Reaches altitude 10° 03:01:02 10° 6° (N) 1,964 6.9 -7.9°
Maximum altitude 03:05:15 62° 286° (WNW) 697 3.7 -7.3°
Drops below altitude 10° 03:09:32 10° 206° (SSW) 1,994 5.6 -6.7°
Enters shadow 03:10:25 - 205° (SSW) 2,352 6.0 -6.6°
